sat.trackr.live / text

‹ back to catalog

BELINTERSAT-1

NORAD 41238 · 2016-001A

PAYLOAD ACTIVE UNKNOWN

§ Identity

Operator
Country
BELA
Launch date
2016-01-15
Launch site
XICLF
Launch vehicle
Mass (kg)
RCS (m²)
35.80

Purposes: comms

External: N2YO · Heavens-Above · Gunter

§ Orbital elements

Epoch: 2026-05-25T03:59:15.859392Z

Period
1,436.07 min
Inclination
0.0195°
Eccentricity
0.0002219
Mean motion
1.00273478 rev/d
Perigee alt
35,776.8 km
Apogee alt
35,795.5 km
Semi-major
42,164.3 km
B*
0.0000e+0
RAAN
212.3520°
Arg perigee
177.1228°
Mean anomaly
324.5724°
Rev number
3,800

§ Raw data

BELINTERSAT-11 41238U 16001A   26145.16615578  .00000105  00000+0  00000+0 0  99972 41238   0.0195 212.3520 0002219 177.1228 324.5724  1.00273478 38002

JSON: /api/v1/satellites/41238 · /tle

For live sub-satellite position, see the globe view (requires WebGL).

§ Visibility from observer

Set your observer location to see the next 7 days of passes ≥ 10°. The values pass through the URL so the page stays shareable.

No JS? Fill the form by hand. The geolocation button needs JavaScript.